TimeBST,TemperatureF,Dew PointF,Humidity,Sea Level PressureIn,VisibilityMPH,Wind Direction,Wind SpeedMPH,Gust SpeedMPH,PrecipitationIn,Events,Conditions,WindDirDegrees,DateUTC
12:20 AM,44.6,32.0,61,29.95,6.2,NNW,15.0,-,N/A,,Scattered Clouds,340,2013-05-23 23:20:00
12:50 AM,44.6,32.0,61,29.95,6.2,NW,12.7,-,N/A,,Scattered Clouds,310,2013-05-23 23:50:00
1:20 AM,44.6,30.2,57,29.95,6.2,NW,9.2,-,N/A,,Scattered Clouds,320,2013-05-24 00:20:00
1:50 AM,44.6,30.2,57,29.95,6.2,WNW,11.5,-,N/A,,Partly Cloudy,290,2013-05-24 00:50:00
2:20 AM,44.6,32.0,61,29.95,6.2,NW,9.2,-,N/A,,Partly Cloudy,320,2013-05-24 01:20:00
2:50 AM,44.6,32.0,61,29.95,6.2,NW,8.1,-,N/A,,Unknown,320,2013-05-24 01:50:00
3:20 AM,44.6,32.0,61,29.95,6.2,NNW,5.8,-,N/A,,Unknown,340,2013-05-24 02:20:00
3:50 AM,44.6,32.0,61,29.95,6.2,West,8.1,-,N/A,,Unknown,280,2013-05-24 02:50:00
4:20 AM,44.6,32.0,61,29.95,6.2,NNW,8.1,-,N/A,,Partly Cloudy,330,2013-05-24 03:20:00
4:50 AM,44.6,32.0,61,29.98,6.2,NW,6.9,-,N/A,,Partly Cloudy,320,2013-05-24 03:50:00
5:20 AM,44.6,32.0,61,29.98,6.2,NNW,6.9,-,N/A,,Partly Cloudy,330,2013-05-24 04:20:00
5:50 AM,44.6,32.0,61,29.98,6.2,North,10.4,-,N/A,,Partly Cloudy,350,2013-05-24 04:50:00
6:20 AM,44.6,33.8,66,29.98,6.2,NNW,6.9,-,N/A,,Partly Cloudy,340,2013-05-24 05:20:00
6:50 AM,46.4,33.8,62,30.01,6.2,North,9.2,-,N/A,,Scattered Clouds,350,2013-05-24 05:50:00
7:20 AM,46.4,33.8,62,30.01,6.2,NNE,6.9,-,N/A,,Scattered Clouds,20,2013-05-24 06:20:00
7:50 AM,50.0,35.6,58,30.04,-9999.0,North,10.4,-,N/A,,Clear,10,2013-05-24 06:50:00
8:20 AM,50.0,35.6,58,30.04,-9999.0,NNE,15.0,-,N/A,,Clear,20,2013-05-24 07:20:00
8:50 AM,51.8,35.6,54,30.04,6.2,NNE,12.7,24.2,N/A,,Partly Cloudy,20,2013-05-24 07:50:00
9:20 AM,51.8,35.6,54,30.06,6.2,NE,18.4,-,N/A,,Partly Cloudy,40,2013-05-24 08:20:00
9:50 AM,53.6,37.4,54,30.06,6.2,NNE,13.8,-,N/A,,Partly Cloudy,30,2013-05-24 08:50:00
10:20 AM,53.6,37.4,54,30.06,6.2,NNE,17.3,-,N/A,,Scattered Clouds,30,2013-05-24 09:20:00
10:50 AM,53.6,35.6,51,30.09,6.2,NE,17.3,-,N/A,,Scattered Clouds,40,2013-05-24 09:50:00
11:20 AM,51.8,35.6,54,30.09,6.2,NE,15.0,-,N/A,,Scattered Clouds,50,2013-05-24 10:20:00
11:50 AM,55.4,35.6,47,30.09,6.2,NE,16.1,-,N/A,,Scattered Clouds,40,2013-05-24 10:50:00
12:20 PM,53.6,33.8,47,30.09,-9999.0,NE,13.8,-,N/A,,Clear,50,2013-05-24 11:20:00
12:50 PM,57.2,37.4,48,30.09,-9999.0,NE,15.0,-,N/A,,Clear,50,2013-05-24 11:50:00
1:20 PM,57.2,35.6,44,30.09,-9999.0,ENE,15.0,-,N/A,,Clear,60,2013-05-24 12:20:00
1:50 PM,59.0,35.6,42,30.09,-9999.0,NE,13.8,-,N/A,,Clear,50,2013-05-24 12:50:00
2:20 PM,59.0,35.6,42,30.12,-9999.0,ENE,13.8,-,N/A,,Clear,70,2013-05-24 13:20:00
2:50 PM,59.0,35.6,42,30.12,-9999.0,East,13.8,-,N/A,,Clear,80,2013-05-24 13:50:00
3:20 PM,59.0,35.6,42,30.12,-9999.0,East,16.1,-,N/A,,Clear,80,2013-05-24 14:20:00
3:50 PM,59.0,35.6,42,30.12,-9999.0,ENE,12.7,-,N/A,,Clear,60,2013-05-24 14:50:00
4:20 PM,59.0,35.6,42,30.15,-9999.0,ENE,11.5,-,N/A,,Clear,70,2013-05-24 15:20:00
4:50 PM,59.0,37.4,45,30.15,-9999.0,ENE,12.7,-,N/A,,Clear,60,2013-05-24 15:50:00
5:20 PM,57.2,37.4,48,30.15,6.2,East,12.7,-,N/A,,Partly Cloudy,100,2013-05-24 16:20:00
5:50 PM,57.2,37.4,48,30.15,6.2,East,12.7,-,N/A,,Partly Cloudy,90,2013-05-24 16:50:00
6:20 PM,57.2,37.4,48,30.15,6.2,ENE,12.7,-,N/A,,Partly Cloudy,70,2013-05-24 17:20:00
6:50 PM,57.2,37.4,48,30.18,6.2,ENE,12.7,-,N/A,,Partly Cloudy,70,2013-05-24 17:50:00
7:20 PM,55.4,37.4,51,30.18,-9999.0,ESE,9.2,-,N/A,,Clear,110,2013-05-24 18:20:00
7:50 PM,55.4,37.4,51,30.18,-9999.0,East,11.5,-,N/A,,Clear,90,2013-05-24 18:50:00
8:20 PM,53.6,35.6,51,30.18,-9999.0,ESE,8.1,-,N/A,,Clear,110,2013-05-24 19:20:00
8:50 PM,53.6,35.6,51,30.18,-9999.0,SE,6.9,-,N/A,,Clear,130,2013-05-24 19:50:00
9:20 PM,51.8,35.6,54,30.18,-9999.0,SE,5.8,-,N/A,,Clear,140,2013-05-24 20:20:00
9:50 PM,51.8,35.6,54,30.21,-9999.0,SSE,4.6,-,N/A,,Clear,160,2013-05-24 20:50:00
10:20 PM,50.0,35.6,58,30.21,-9999.0,SSE,3.5,-,N/A,,Clear,150,2013-05-24 21:20:00
10:50 PM,48.2,35.6,62,30.21,-9999.0,Variable,2.3,-,N/A,,Clear,0,2013-05-24 21:50:00
11:20 PM,48.2,37.4,66,30.21,-9999.0,WNW,3.5,-,N/A,,Clear,300,2013-05-24 22:20:00
11:50 PM,44.6,35.6,71,30.21,-9999.0,Variable,3.5,-,N/A,,Clear,0,2013-05-24 22:50:00